Find DSCS II F-8

NORAD ID: 10001 Int'l Des: 1977-034 Owner: SAMSO/DCA Country: US operational
HEOCIRCULAR

Live Position

Loading 3D Globe...

About DSCS II F-8

Description loading...

Upcoming Passes

Passes for default location (London). Set your location on the main map for personalized predictions.

Altitude History

Loading altitude history...

Two-Line Element Set

1 10001U 77034B 26105.93392763 -.00000133 00000-0 00000-0 0 9997
2 10001 8.9110 300.0940 0033705 153.2519 49.4413 0.95427291116937
Epoch: Apr 15, 2026 • Age: 15 hours

Current Status

Altitude 37215.5 km
Velocity 3.02 km/s
Sub-Earth Point 7.49°N, 49.11°W
Launch Date May 12, 1977
Age 48.9 years
Type other

Technical Details

Classification Payload
Mass 612.00 kg
Dry Mass 550.00 kg
Total Mass 612.00 kg
Length 3.60 m
Diameter 2.70 m
Span 3.60 m
Shape Cyl
Manufacturer TRW
Bus Type DSCS II
Phase Status In Orbit
Owner/State SAMSO/DCA/US

Most Searched